Santee, CA

10:08 AM PST on December 15, 2017 (GMT -0800)
Gillespie

Weather History for KSEE - January, 2013

Change the Weather History Date:

Wednesday, January 23, 2013

  Actual Average Record
Temperature  
Mean Temperature 58 °F -  
Max Temperature 71 °F 69 °F 78 °F (1989)
Min Temperature 46 °F 41 °F 32 °F (2002)
Degree Days  
Heating Degree Days 6    
Growing Degree Days 8 (Base 50)    
Moisture  
Dew Point 33 °F    
Average Humidity 45    
Maximum Humidity 57    
Minimum Humidity 25    
Precipitation  
Precipitation 0.00 in - - ()
Sea Level Pressure  
Sea Level Pressure 30.09 in    
Wind  
Wind Speed 0 mph (SW)    
Max Wind Speed 4 mph    
Max Gust Speed -    
Visibility 10 miles    
Events      
Averages and records for this station are not official NWS values.
T = Trace of Precipitation, MM = Missing Value Source: NWS Daily Summary

Daily Weather History Graph

Daily Weather History Graph

Search for Another Location

Airport or City:

Trip Planner

Search our weather history database for the weather conditions in past years. The results will help you decide how hot, cold, wet, or windy it might be!

Date:

Astronomy

Jan. 23, 2013 Rise Set
Actual Time 6:47 AM PST 5:12 PM PST
Civil Twilight 6:21 AM PST 5:38 PM PST
Nautical Twilight 5:51 AM PST 6:08 PM PST
Astronomical Twilight 5:22 AM PST 6:37 PM PST
Moon 2:28 PM PST (1/23) 4:00 AM PST (1/23)
Length of Visible Light 11h 17m
Length of Day
10h 24m
Waxing Gibbous, 90% of the Moon is Illuminated
Jan 23
Waxing Gibbous
Jan 26
Full
Feb 3
Last Quarter
Feb 9
New
Feb 17
First Quarter

Hourly Weather History & Observations

Time (PST) Temp. Dew Point Humidity Pressure Visibility Wind Dir Wind Speed Gust Speed Precip Events Conditions
12:15 AM 48.2 °F 30.2 °F 50% 30.07 in 10.0 mi Calm Calm - N/A   Clear
12:55 AM 46.4 °F 30.2 °F 53% 30.07 in 10.0 mi Calm Calm - N/A   Clear
1:15 AM 46.4 °F 30.2 °F 53% 30.06 in 10.0 mi Calm Calm - N/A   Clear
1:55 AM 46.4 °F 32.0 °F 57% 30.06 in 10.0 mi Calm Calm - N/A   Clear
2:15 AM 46.4 °F 30.2 °F 53% 30.06 in 10.0 mi Calm Calm - N/A   Clear
2:35 AM 48.2 °F 30.2 °F 50% 30.06 in 10.0 mi Calm Calm - N/A   Clear
2:55 AM 46.4 °F 32.0 °F 57% 30.05 in 10.0 mi Calm Calm - N/A   Clear
3:15 AM 46.4 °F 32.0 °F 57% 30.05 in 10.0 mi Calm Calm - N/A   Clear
3:35 AM 46.4 °F 32.0 °F 57% 30.04 in 10.0 mi Calm Calm - N/A   Clear
3:55 AM 46.4 °F 32.0 °F 57% 30.05 in 10.0 mi Calm Calm - N/A   Clear
4:15 AM 48.2 °F 32.0 °F 54% 30.04 in 10.0 mi Calm Calm - N/A   Clear
4:35 AM 48.2 °F 32.0 °F 54% 30.04 in 10.0 mi Calm Calm - N/A   Clear
4:55 AM 46.4 °F 32.0 °F 57% 30.04 in 10.0 mi Calm Calm - N/A   Clear
5:15 AM 46.4 °F 32.0 °F 57% 30.04 in 10.0 mi Calm Calm - N/A   Clear
6:47 AM 50.0 °F 32.0 °F 50% 30.07 in 25.0 mi Calm Calm - N/A   Mostly Cloudy
7:50 AM 51.8 °F 35.6 °F 54% 30.06 in 25.0 mi Calm Calm - N/A   Mostly Cloudy
8:47 AM 55.4 °F 33.8 °F 44% 30.08 in 25.0 mi Calm Calm - N/A   Overcast
11:47 AM 68.0 °F 35.6 °F 30% 30.07 in 25.0 mi Calm Calm - N/A   Overcast
12:47 PM 71.6 °F 33.8 °F 25% 30.06 in 25.0 mi Calm Calm - N/A   Overcast
8:15 PM 62.6 °F 32.0 °F 32% 30.12 in 10.0 mi SW 3.5 mph - N/A   Partly Cloudy
8:35 PM 62.6 °F 32.0 °F 32% 30.12 in 10.0 mi Calm Calm - N/A   Partly Cloudy
8:47 PM 62.6 °F 30.2 °F 30% 30.12 in 10.0 mi Calm Calm - N/A   Scattered Clouds
8:55 PM 62.6 °F 32.0 °F 32% 30.11 in 10.0 mi Calm Calm - N/A   Partly Cloudy
9:15 PM 62.6 °F 32.0 °F 32% 30.12 in 10.0 mi Calm Calm - N/A   Partly Cloudy
9:35 PM 60.8 °F 33.8 °F 36% 30.12 in 10.0 mi Calm Calm - N/A   Partly Cloudy
9:55 PM 60.8 °F 33.8 °F 36% 30.14 in 10.0 mi SW 3.5 mph - N/A   Mostly Cloudy
10:15 PM 60.8 °F 33.8 °F 36% 30.14 in 10.0 mi Calm Calm - N/A   Mostly Cloudy
10:35 PM 60.8 °F 35.6 °F 39% 30.14 in 10.0 mi Calm Calm - N/A   Scattered Clouds
10:55 PM 60.8 °F 35.6 °F 39% 30.14 in 10.0 mi Calm Calm - N/A   Mostly Cloudy
11:15 PM 60.8 °F 35.6 °F 39% 30.15 in 10.0 mi Calm Calm - N/A   Overcast
11:35 PM 60.8 °F 37.4 °F 42% 30.15 in 10.0 mi Calm Calm - N/A   Overcast
11:55 PM 59.0 °F 39.2 °F 48% 30.15 in 10.0 mi Calm Calm - N/A   Overcast